Weather in Vorobjevo

Russia / Republic of Crimea     45°19′47″N   33°14′54″E
temp.,
°C
wind,
m/s
gust,
m/s
humid.,
%
clouds,
%
prec.,
mm/h
press.,
hPa
HPBL,
m
28 february, sun
sun2800:00+5n71075100 0.0 1020763
03:00+5nnw6869100 0.0 1020938
06:00+5nnw5883100 0.1 1020620
09:00+5nnw6883100 0.3 1022737
12:00+5nnw7873100 0.4 1023899
15:00+6nnw787277 0.5 1023951
18:00+5nnw787788 0.1 1023792
21:00+3nnw478566 0.1 1024375
1 march, mon
mon100:00+3nw347650 0.0 1025273
03:00+3nw477371 0.1 1024334
06:00+2nw237875 0.0 1024213
09:00+3n227688 0.1 1025284
12:00+4ene1175100 0.1 1026558
15:00+6nw016498 0.1 1026821
18:00+6nne445886 0.1 10271049
21:00+3nne577866 0.1 1029266
2 march, tue
tue200:00+2nne45853 0.0 1030163
03:00+1nne458614 0.0 1031165
06:000nne44884 0.0 1031127
09:00+2n35762 0.0 1031244
12:00+5nw33560 0.0 10311080
15:00+5wnw555628 0.0 10291044
18:00+4w676657 0.0 1027900
21:00+4w697643 0.0 1026437
3 march, wed
wed300:00+6wsw812770 0.0 1024536
03:00+6w813798 0.0 1022534
06:00+4nnw712860 0.0 1022488
09:00+5n8106734 0.0 10241237
12:00+7nnw8105473 0.0 10261319
15:00+8nnw685142 0.0 10261312
18:00+7nnw47520 0.0 1027717
21:00+5nw44730 0.0 1028125
4 march, thu
thu400:00+4nnw33739 0.0 102974
03:00+3nw11775 0.0 102866
06:00+3sw12790 0.0 1027137
09:00+6sw35660 0.0 1026462
12:00+8sw56580 0.0 10251073
15:00+8sw67570 0.0 1023934
18:00+7sw79670 0.0 1021813
21:00+6ssw711740 0.0 1020540